Location: Spondin
(51.8528°N, 111.6118°W)
Time: 17:20:43
(UTC+00:00)

Vanguard 2 Rocket - Pass Details

Date: 30 May 2022
Orbit: 553 x 3323 km, 32.9° (Epoch: 02 July)

Event Time Altitude Azimuth Distance (km) Brightness Sun altitude
Rises 20:50:31 0° 241° (WSW) 7,271 12.0 55.7°
Reaches altitude 10° 20:55:57 10° 235° (SW) 6,278 11.9 55.2°
Maximum altitude 21:12:59 38° 177° (S) 3,912 11.1 53.4°
Drops below altitude 10° 21:25:46 10° 117° (ESE) 4,761 10.5 51.9°
Sets 21:29:12 0° 109° (ESE) 5,417 10.7 51.5°
